30.06.2024;16:00;13
30.06.2024;15:00;13
30.06.2024;14:00;13
30.06.2024;13:00;12
30.06.2024;12:00;16
30.06.2024;11:00;16
30.06.2024;10:00;19
30.06.2024;09:00;25
30.06.2024;08:00;27
30.06.2024;07:00;30
30.06.2024;06:00;33
30.06.2024;05:00;45
30.06.2024;04:00;56
30.06.2024;03:00;69
30.06.2024;02:00;70
30.06.2024;01:00;70
29.06.2024;24:00;75
29.06.2024;23:00;58
29.06.2024;22:00;37
29.06.2024;21:00;26
29.06.2024;20:00;24
29.06.2024;19:00;24
29.06.2024;18:00;25
29.06.2024;17:00;24
29.06.2024;16:00;24
29.06.2024;15:00;24
29.06.2024;14:00;22
29.06.2024;13:00;20
29.06.2024;12:00;20
29.06.2024;11:00;19
29.06.2024;10:00;19
29.06.2024;09:00;19
29.06.2024;08:00;22
29.06.2024;07:00;26
29.06.2024;06:00;29
29.06.2024;05:00;32
29.06.2024;04:00;33
29.06.2024;03:00;37
29.06.2024;02:00;38
29.06.2024;01:00;44
28.06.2024;24:00;35
28.06.2024;23:00;31
28.06.2024;22:00;24
28.06.2024;21:00;24
28.06.2024;20:00;23
28.06.2024;19:00;24
28.06.2024;18:00;22
28.06.2024;17:00;21
28.06.2024;16:00;20
28.06.2024;15:00;20
28.06.2024;14:00;19
28.06.2024;13:00;18
28.06.2024;12:00;14
28.06.2024;11:00;11
28.06.2024;10:00;10
28.06.2024;09:00;11
28.06.2024;08:00;10
28.06.2024;07:00;15
28.06.2024;06:00;18
28.06.2024;05:00;17
28.06.2024;04:00;17
28.06.2024;03:00;19
28.06.2024;02:00;18
28.06.2024;01:00;16
27.06.2024;24:00;22
27.06.2024;23:00;23
27.06.2024;22:00;27
27.06.2024;21:00;23
27.06.2024;20:00;23
27.06.2024;19:00;22
27.06.2024;18:00;25
27.06.2024;17:00;23
27.06.2024;16:00;23
27.06.2024;15:00;22
27.06.2024;14:00;#
27.06.2024;13:00;#
27.06.2024;12:00;#
27.06.2024;11:00;#
27.06.2024;10:00;15
27.06.2024;09:00;14
27.06.2024;08:00;13
27.06.2024;07:00;15
27.06.2024;06:00;12
27.06.2024;05:00;11
27.06.2024;04:00;10
27.06.2024;03:00;9
27.06.2024;02:00;10
27.06.2024;01:00;10
26.06.2024;24:00;11
26.06.2024;23:00;14
26.06.2024;22:00;16
26.06.2024;21:00;16
26.06.2024;20:00;15
26.06.2024;19:00;19
26.06.2024;18:00;19
26.06.2024;17:00;24
26.06.2024;16:00;27
26.06.2024;15:00;26
26.06.2024;14:00;25
26.06.2024;13:00;27
26.06.2024;12:00;26
26.06.2024;11:00;23
26.06.2024;10:00;20
26.06.2024;09:00;17
26.06.2024;08:00;16
26.06.2024;07:00;14
26.06.2024;06:00;12
26.06.2024;05:00;11
26.06.2024;04:00;11
26.06.2024;03:00;14
26.06.2024;02:00;19
26.06.2024;01:00;26
25.06.2024;24:00;24
25.06.2024;23:00;21
25.06.2024;22:00;20
25.06.2024;21:00;19
25.06.2024;20:00;19
25.06.2024;19:00;19
25.06.2024;18:00;20
25.06.2024;17:00;19
25.06.2024;16:00;19
25.06.2024;15:00;18
25.06.2024;14:00;18
25.06.2024;13:00;16
25.06.2024;12:00;14
25.06.2024;11:00;13
25.06.2024;10:00;12
25.06.2024;09:00;11
25.06.2024;08:00;12
25.06.2024;07:00;13
25.06.2024;06:00;12
25.06.2024;05:00;11
25.06.2024;04:00;10
25.06.2024;03:00;11
25.06.2024;02:00;12
25.06.2024;01:00;13
